Location: Cypress Hills Dark-Sky Preserve - CHICO
(49.6176°N, 110.2634°W)
Time: 04:50:34
(UTC-07:00)

Amateur Radio Satellites - All Passes

Search period start: 11 December 2016 04:20
Search period end: 12 December 2016 04:20
Location: Cypress Hills Dark-Sky Preserve - CHICO, 49.6176°N, 110.2634°W

Satellite Date Start Highest point End Downlink Frequencies (MHz)
Time Altitude Azimuth
MOZHAYETS 4 11 Dec 04:21:33 04:24:45 18° 270° (W) 04:27:57
Cosmos 2491 11 Dec 04:35:16 04:39:00 13° 69° (ENE) 04:42:42 435.465 / 435.565
CUBESAT XI-V 11 Dec 04:37:42 04:42:17 68° 259° (WSW) 04:46:54 437.345
BEESAT 2 11 Dec 04:38:42 04:42:31 49° 123° (ESE) 04:46:24 435.950
AO-85 11 Dec 04:41:04 04:42:51 12° 346° (NNW) 04:44:36 145.980
ITAMSAT 1 11 Dec 04:42:23 04:47:07 37° 296° (WNW) 04:51:50 435.822/435.867
Gurwin Techsat 1B 11 Dec 04:45:12 04:47:25 13° 310° (NW) 04:49:38 435.225
HORYU 2 11 Dec 05:09:16 05:13:02 27° 94° (E) 05:16:46 437.375
RS-15 11 Dec 05:14:40 05:23:04 23° 98° (E) 05:31:41 29.354- 29.394
Cosmos 2504 11 Dec 05:16:32 05:24:21 34° 62° (ENE) 05:31:45 435.465 / 435.565
BRITE-PL 11 Dec 05:18:27 05:23:52 53° 99° (E) 05:29:25 437.365/2234.400
CUTE-I 11 Dec 05:19:36 05:22:04 13° 86° (E) 05:24:34 437.470
NOAA 15 11 Dec 05:23:04 05:26:09 15° 88° (E) 05:29:15 137.62
BEESAT 3 11 Dec 05:35:13 05:38:45 31° 321° (NW) 05:42:20 437.485
STARS 11 Dec 05:37:12 05:39:40 14° 271° (W) 05:42:07 437.465
STRAND 1 11 Dec 05:41:49 05:46:14 30° 62° (ENE) 05:50:40 437.568
DOVE 4 11 Dec 05:45:03 05:48:55 20° 88° (E) 05:52:41 437.250
Cubesat XI-IV 11 Dec 05:46:16 05:50:24 22° 91° (E) 05:54:28 437.490
YUBILEINY 11 Dec 05:50:09 05:59:04 82° 79° (E) 06:07:56 435.215
AIST 1 11 Dec 05:52:03 05:56:17 43° 74° (ENE) 06:00:29
GOMX 1 11 Dec 06:03:00 06:08:27 59° 100° (E) 06:13:50 467.674
LilacSat-2 11 Dec 06:09:49 06:13:16 33° 96° (E) 06:16:42 437.200
AO-7 11 Dec 06:10:27 06:17:45 35° 309° (NW) 06:25:03 29.400- 29.500
NOAA 18 11 Dec 06:16:11 06:20:45 26° 93° (E) 06:25:16 137.9125
BEESAT 2 11 Dec 06:17:04 06:20:31 28° 323° (NW) 06:24:01 435.950
AIST 2 11 Dec 06:20:24 06:23:12 18° 113° (ESE) 06:26:03 435.215
HO-68 11 Dec 06:22:06 06:24:34 12° 81° (E) 06:27:01 435.675
CINEMA 3 11 Dec 06:23:17 06:24:31 11° 83° (E) 06:25:45 145.822/145.860
AO-85 11 Dec 06:23:38 06:25:09 12° 12° (NNE) 06:26:38 145.980
Cosmos 2491 11 Dec 06:25:21 06:33:53 60° 91° (E) 06:42:24 435.465 / 435.565
HORYU 2 11 Dec 06:45:35 06:49:42 39° 293° (WNW) 06:53:48 437.375
CANX-2 11 Dec 06:46:17 06:47:42 11° 86° (E) 06:49:08 2200.000
BRITE-PL 11 Dec 06:57:22 07:02:05 30° 297° (WNW) 07:06:56 437.365/2234.400
CUTE-I 11 Dec 06:57:37 07:02:59 82° 106° (ESE) 07:08:18 437.470
NOAA 15 11 Dec 07:01:20 07:06:39 87° 288° (WNW) 07:11:57 137.62
Cosmos 2504 11 Dec 07:09:48 07:18:31 70° 267° (W) 07:26:42 435.465 / 435.565
BEESAT 3 11 Dec 07:16:16 07:17:35 11° 344° (NNW) 07:18:53 437.485
STRAND 1 11 Dec 07:20:21 07:25:15 45° 261° (W) 07:30:11 437.568
RS-15 11 Dec 07:21:36 07:33:24 76° 123° (ESE) 07:45:43 29.354- 29.394
DOVE 4 11 Dec 07:21:50 07:27:06 67° 288° (WNW) 07:32:10 437.250
Cubesat XI-IV 11 Dec 07:25:37 07:30:54 62° 290° (WNW) 07:36:09 437.490
AIST 1 11 Dec 07:30:13 07:33:36 22° 273° (W) 07:36:59
CUBEBUG 2 11 Dec 07:37:27 07:39:52 15° 88° (E) 07:42:15 437.445
GOMX 1 11 Dec 07:41:38 07:46:09 27° 299° (WNW) 07:50:40 467.674
LilacSat-2 11 Dec 07:44:24 07:47:26 23° 295° (WNW) 07:50:27 437.200
ANTELSAT 11 Dec 07:47:27 07:48:27 11° 53° (NE) 07:49:28 437.575/2403.000
YUBILEINY 11 Dec 07:48:02 07:54:53 26° 282° (WNW) 08:01:43 435.215
AAUSAT CUBESAT 2 11 Dec 07:56:19 07:59:20 19° 91° (E) 08:02:21 437.432
NOAA 18 11 Dec 07:56:20 08:01:47 57° 292° (WNW) 08:07:09 137.9125
AIST 2 11 Dec 07:57:08 08:01:14 66° 312° (NW) 08:05:25 435.215
CINEMA 3 11 Dec 07:57:43 08:02:32 81° 103° (ESE) 08:07:05 145.822/145.860
BEESAT 2 11 Dec 07:58:31 07:59:36 11° 346° (NNW) 08:00:42 435.950
CUTE 1.7 + AOD 2 11 Dec 08:00:39 08:04:49 54° 100° (E) 08:08:57 437.475
AO-85 11 Dec 08:03:20 08:06:56 28° 36° (NE) 08:10:22 145.980
PRISM 11 Dec 08:04:27 08:08:20 44° 69° (ENE) 08:12:16 437.425
AO-7 11 Dec 08:04:55 08:08:06 13° 334° (NNW) 08:11:18 29.400- 29.500
HO-68 11 Dec 08:06:42 08:13:51 60° 102° (ESE) 08:20:57 435.675
UWE-3 11 Dec 08:06:57 08:09:58 18° 90° (E) 08:12:55 435.000/436.395/437.385
CANX-2 11 Dec 08:19:55 08:24:10 84° 284° (WNW) 08:28:24 2200.000
Cosmos 2491 11 Dec 08:23:10 08:31:11 38° 294° (WNW) 08:39:14 435.465 / 435.565
COMPASS 1 11 Dec 08:31:55 08:36:02 54° 100° (E) 08:40:08 437.405
SEEDS 11 Dec 08:32:52 08:37:05 81° 104° (ESE) 08:41:18 437.485
GONETS M04 11 Dec 08:34:07 08:36:53 12° 40° (NE) 08:39:40
ZACube-1 11 Dec 08:34:23 08:37:39 22° 92° (E) 08:40:52 437.345
JAS-2 11 Dec 08:37:35 08:39:19 11° 50° (NE) 08:41:02 435.910
FUNcube-1 11 Dec 08:38:34 08:41:52 22° 92° (E) 08:45:06 145.935
CUTE-I 11 Dec 08:38:44 08:42:25 19° 304° (NW) 08:46:05 437.470
NOAA 15 11 Dec 08:42:25 08:45:43 17° 306° (NW) 08:49:00 137.62
CUSAT 1 11 Dec 08:48:38 08:51:08 34° 97° (E) 08:53:32 437.405
UNISAT 6 11 Dec 08:49:03 08:53:14 35° 67° (ENE) 08:57:23 437.425
DANDE 11 Dec 08:52:40 08:53:40 11° 93° (E) 08:54:35 436.750
Oscar 11 11 Dec 09:01:01 09:05:00 35° 97° (E) 09:08:58 145.826/435.025
DOVE 4 11 Dec 09:01:22 09:03:48 13° 308° (NW) 09:06:12 437.250
Cosmos 2504 11 Dec 09:05:13 09:10:11 17° 289° (WNW) 09:15:01 435.465 / 435.565
Cubesat XI-IV 11 Dec 09:07:44 09:09:58 13° 310° (NW) 09:12:13 437.490
CUBEBUG 2 11 Dec 09:12:40 09:17:01 67° 287° (WNW) 09:21:13 437.445
TIGRISAT 11 Dec 09:16:41 09:21:15 57° 71° (ENE) 09:25:45 435.000
ANTELSAT 11 Dec 09:19:43 09:24:19 64° 72° (ENE) 09:28:51 437.575/2403.000
AAUSAT CUBESAT 2 11 Dec 09:31:04 09:35:05 48° 289° (WNW) 09:39:04 437.432
RS-15 11 Dec 09:35:11 09:46:54 52° 331° (NNW) 09:58:58 29.354- 29.394
CINEMA 3 11 Dec 09:36:05 09:39:00 16° 303° (WNW) 09:41:51 145.822/145.860
CUTE 1.7 + AOD 2 11 Dec 09:37:18 09:40:18 19° 298° (WNW) 09:43:18 437.475
DELFI C3 11 Dec 09:37:29 09:41:05 31° 96° (E) 09:44:40 145.870
AIST 2 11 Dec 09:37:41 09:40:29 17° 334° (NNW) 09:43:21 435.215
BEESAT 2 11 Dec 09:38:40 09:39:13 10° 11° (N) 09:39:46 435.950
NOAA 18 11 Dec 09:39:07 09:41:20 12° 313° (NW) 09:43:32 137.9125
PRISM 11 Dec 09:40:47 09:43:51 20° 267° (W) 09:46:58 437.425
UWE-3 11 Dec 09:42:36 09:46:46 51° 289° (WNW) 09:50:49 435.000/436.395/437.385
AO-85 11 Dec 09:43:39 09:47:30 45° 238° (WSW) 09:51:12 145.980
NANOSAT C BR1 11 Dec 09:46:38 09:49:22 17° 59° (ENE) 09:52:04 145.865
Cosmos 2499 11 Dec 09:51:18 09:58:39 30° 60° (ENE) 10:05:33 435.465 / 435.565
HO-68 11 Dec 09:54:52 10:01:17 36° 303° (WNW) 10:07:41 435.675
QB50P2 11 Dec 09:57:38 10:01:01 23° 63° (ENE) 10:04:25 145.880/145.840
CANX-2 11 Dec 09:57:45 09:59:20 12° 304° (WNW) 10:00:56 2200.000
POLYITAN 1 11 Dec 09:58:04 10:01:23 22° 62° (ENE) 10:04:43 437.675
DUCHIFAT 1 11 Dec 10:04:57 10:08:15 22° 63° (ENE) 10:11:33 145.980
COMPASS 1 11 Dec 10:08:18 10:11:14 19° 298° (WNW) 10:14:09 437.405
QB50P1 11 Dec 10:08:44 10:12:21 27° 65° (ENE) 10:15:58 145.935-145.965
SEEDS 11 Dec 10:10:04 10:12:13 14° 302° (WNW) 10:14:21 437.485
ZACube-1 11 Dec 10:10:09 10:14:10 42° 291° (WNW) 10:18:05 437.345
FUNcube-1 11 Dec 10:14:20 10:18:19 41° 291° (WNW) 10:22:12 145.935
JAS-2 11 Dec 10:17:38 10:23:28 58° 70° (ENE) 10:28:47 435.910
UNISAT 6 11 Dec 10:25:47 10:29:58 32° 265° (W) 10:34:06 437.425
GONETS M04 11 Dec 10:28:33 10:36:46 43° 68° (ENE) 10:44:58
Cosmos 2491 11 Dec 10:30:12 10:31:23 10° 323° (NW) 10:32:34 435.465 / 435.565
POPSAT HIP 1 11 Dec 10:30:22 10:34:24 42° 69° (ENE) 10:38:27 437.405
DANDE 11 Dec 10:32:47 10:36:10 40° 284° (WNW) 10:38:59 436.750
BEESAT 3 11 Dec 10:33:01 10:36:06 21° 32° (NNE) 10:39:10 437.485
PCSat 11 Dec 10:33:42 10:38:56 51° 117° (ESE) 10:44:11 145.827
Oscar 11 11 Dec 10:37:22 10:41:02 28° 295° (WNW) 10:44:43 145.826/435.025
BUGSAT 1 11 Dec 10:37:25 10:40:32 20° 61° (ENE) 10:43:40 437.445
HUMSAT D 11 Dec 10:44:35 10:48:41 86° 104° (ESE) 10:52:46 437.325/437.525
CUBEBUG 2 11 Dec 10:52:23 10:52:46 10° 307° (NW) 10:53:09 437.445
TIGRISAT 11 Dec 10:54:54 10:58:16 20° 269° (W) 11:01:37 435.000
ANTELSAT 11 Dec 10:58:19 11:01:25 18° 270° (W) 11:04:31 437.575/2403.000
DELFI C3 11 Dec 11:12:25 11:15:49 27° 294° (WNW) 11:19:13 145.870
Gurwin Techsat 1B 11 Dec 11:14:11 11:15:21 11° 48° (NE) 11:16:30 435.225
BEESAT 2 11 Dec 11:15:05 11:18:25 24° 34° (NE) 11:21:43 435.950
AIST 2 11 Dec 11:20:14 11:20:39 10° 358° (N) 11:21:05 435.215
NANOSAT C BR1 11 Dec 11:20:22 11:24:36 67° 258° (WSW) 11:28:53 145.865
QB50P2 11 Dec 11:32:28 11:36:35 44° 261° (W) 11:40:43 145.880/145.840
POLYITAN 1 11 Dec 11:32:47 11:36:55 47° 260° (W) 11:41:05 437.675
DUCHIFAT 1 11 Dec 11:39:34 11:43:40 46° 261° (W) 11:47:47 145.980
AISAT 11 Dec 11:41:09 11:44:49 24° 93° (E) 11:48:28 437.250
AO-7 11 Dec 11:42:22 11:46:11 14° 29° (NNE) 11:50:01 29.400- 29.500
QB50P1 11 Dec 11:44:02 11:48:00 37° 263° (W) 11:52:00 145.935-145.965
Cosmos 2499 11 Dec 11:44:11 11:52:45 76° 265° (W) 12:00:39 435.465 / 435.565
HO-68 11 Dec 11:45:38 11:46:59 11° 326° (NW) 11:48:21 435.675
CUBEBUG 1 11 Dec 11:50:37 11:54:50 40° 98° (E) 11:59:01 437.445
RS-15 11 Dec 11:51:28 12:02:51 40° 4° (N) 12:14:15 29.354- 29.394
ESTCUBE 1 11 Dec 11:59:56 12:04:29 77° 104° (ESE) 12:09:01 437.505/2401.250
50 SAT 11 Dec 12:00:06 12:03:10 26° 96° (E) 12:06:12 437.505
JAS-2 11 Dec 12:04:02 12:08:54 25° 267° (W) 12:13:26 435.910
Oscar 19 11 Dec 12:04:28 12:09:14 40° 66° (ENE) 12:14:03 437.125/150
SPROUT 11 Dec 12:05:16 12:08:57 27° 94° (E) 12:12:35 437.525
UKube-1 11 Dec 12:06:06 12:08:56 17° 91° (E) 12:11:46 .
POPSAT HIP 1 11 Dec 12:06:53 12:10:20 23° 267° (W) 12:13:49 437.405
BEESAT 3 11 Dec 12:10:11 12:14:12 80° 232° (SW) 12:18:11 437.485
DX 1 11 Dec 12:10:33 12:14:10 24° 94° (E) 12:17:45 434.975-435.025
BUGSAT 1 11 Dec 12:11:25 12:15:34 52° 260° (W) 12:19:46 437.445
VELOX 1 11 Dec 12:17:11 12:21:32 49° 100° (E) 12:25:53 145.980
PCSat 11 Dec 12:17:32 12:22:32 36° 319° (NW) 12:27:34 145.827
HUMSAT D 11 Dec 12:21:58 12:23:41 12° 303° (WNW) 12:25:25 437.325/437.525
GONETS M04 11 Dec 12:25:30 12:33:51 53° 271° (W) 12:42:13
ITAMSAT 1 11 Dec 12:48:18 12:51:28 16° 54° (NE) 12:54:37 435.822/435.867
Gurwin Techsat 1B 11 Dec 12:49:01 12:54:09 52° 68° (ENE) 12:59:20 435.225
BEESAT 2 11 Dec 12:52:33 12:56:34 65° 234° (SW) 13:00:33 435.950
AIST 2 11 Dec 12:58:21 13:00:54 15° 23° (NNE) 13:03:26 435.215
TISAT 1 11 Dec 13:05:36 13:08:47 20° 92° (E) 13:11:56 437.305
AISAT 11 Dec 13:17:12 13:21:27 43° 292° (WNW) 13:25:41 437.250
CUBEBUG 1 11 Dec 13:27:14 13:30:57 27° 296° (WNW) 13:34:39 437.445
AO-7 11 Dec 13:29:13 13:36:44 40° 54° (NE) 13:44:18 29.400- 29.500
50 SAT 11 Dec 13:33:22 13:36:24 26° 293° (WNW) 13:39:27 437.505
ESTCUBE 1 11 Dec 13:37:58 13:40:44 16° 302° (WNW) 13:43:30 437.505/2401.250
Cosmos 2499 11 Dec 13:39:07 13:44:18 18° 288° (WNW) 13:49:17 435.465 / 435.565
SPROUT 11 Dec 13:41:01 13:44:57 36° 293° (WNW) 13:48:51 437.525
UKube-1 11 Dec 13:41:04 13:45:22 60° 289° (WNW) 13:49:38 .
Oscar 19 11 Dec 13:44:02 13:48:38 33° 265° (W) 13:53:18 437.125/150
DX 1 11 Dec 13:46:21 13:50:31 42° 292° (WNW) 13:54:39 434.975-435.025
BEESAT 3 11 Dec 13:50:24 13:51:07 10° 251° (WSW) 13:51:51 437.485
VELOX 1 11 Dec 13:54:13 13:57:43 23° 299° (WNW) 14:01:12 145.980
PCSat 11 Dec 14:04:31 14:07:33 15° 343° (NNW) 14:10:36 145.827
RS-15 11 Dec 14:06:05 14:18:23 60° 36° (NE) 14:30:25 29.354- 29.394
SWISSCUBE 11 Dec 14:19:01 14:23:05 27° 94° (E) 14:27:08 437.505
BEESAT 11 Dec 14:22:24 14:26:26 27° 94° (E) 14:30:27 436.000
ITAMSAT 1 11 Dec 14:24:59 14:30:13 85° 72° (ENE) 14:35:27 435.822/435.867
GONETS M04 11 Dec 14:26:09 14:28:29 11° 294° (WNW) 14:30:50
O/OREOS (USA 219) 11 Dec 14:27:02 14:30:33 22° 103° (ESE) 14:34:04 437.305
Gurwin Techsat 1B 11 Dec 14:29:57 14:34:24 27° 267° (W) 14:38:52 435.225
AIST 2 11 Dec 14:36:10 14:40:19 50° 45° (NE) 14:44:26 435.215
Cosmos 2491 11 Dec 14:36:55 14:37:56 10° 37° (NE) 14:38:58 435.465 / 435.565
AUBIESAT-1 11 Dec 14:36:56 14:40:23 21° 96° (E) 14:43:43 437.475
TISAT 1 11 Dec 14:40:37 14:44:40 46° 291° (WNW) 14:48:41 437.305
ITUPSAT 1 11 Dec 14:53:55 14:58:34 49° 100° (E) 15:03:11 437.325
M-CUBED/EXP-1 PRIME 11 Dec 14:54:03 14:58:21 36° 102° (ESE) 15:02:27 437.505
BRITE-PL 11 Dec 14:58:20 15:00:45 14° 53° (NE) 15:03:16 437.365/2234.400
ISS 11 Dec 15:10:00 15:13:07 40° 150° (SSE) 15:16:15 145.825
AO-7 11 Dec 15:20:58 15:29:11 63° 256° (WSW) 15:37:30 29.400- 29.500
Cubesat XI-IV 11 Dec 15:36:51 15:38:26 11° 48° (NE) 15:40:02 437.490
GOMX 1 11 Dec 15:39:36 15:42:40 16° 55° (NE) 15:45:48 467.674
PCSat 11 Dec 15:50:50 15:53:21 13° 10° (N) 15:55:53 145.827
KKS-1 11 Dec 15:55:18 15:58:59 24° 94° (E) 16:02:38 437.445
SWISSCUBE 11 Dec 15:56:32 16:01:02 42° 293° (WNW) 16:05:30 437.505
BEESAT 11 Dec 15:59:53 16:04:23 43° 293° (WNW) 16:08:52 436.000
O/OREOS (USA 219) 11 Dec 16:05:13 16:09:39 50° 302° (WNW) 16:14:05 437.305
ITAMSAT 1 11 Dec 16:07:19 16:10:22 15° 272° (W) 16:13:25 435.822/435.867
NOAA 18 11 Dec 16:09:13 16:12:17 15° 50° (NE) 16:15:20 137.9125
MOZHAYETS 4 11 Dec 16:10:07 16:14:43 77° 103° (ESE) 16:19:17
AUBIESAT-1 11 Dec 16:10:38 16:15:07 54° 296° (WNW) 16:19:22 437.475
HORYU 2 11 Dec 16:11:02 16:15:15 43° 68° (ENE) 16:19:30 437.375
AIST 2 11 Dec 16:15:05 16:18:34 25° 244° (WSW) 16:22:01 435.215
RS-15 11 Dec 16:19:09 16:31:09 60° 243° (WSW) 16:42:48 29.354- 29.394
M-CUBED/EXP-1 PRIME 11 Dec 16:28:33 16:32:45 34° 301° (WNW) 16:36:47 437.505
Cosmos 2491 11 Dec 16:30:07 16:38:08 38° 65° (ENE) 16:46:06 435.465 / 435.565
CUBESAT XI-V 11 Dec 16:30:11 16:33:53 23° 92° (E) 16:37:34 437.345
ITUPSAT 1 11 Dec 16:32:16 16:36:09 25° 299° (WNW) 16:40:00 437.325
BRITE-PL 11 Dec 16:33:50 16:38:22 83° 74° (ENE) 16:43:20 437.365/2234.400
CUTE-I 11 Dec 16:44:41 16:49:28 34° 63° (ENE) 16:54:16 437.470
ISS 11 Dec 16:46:15 16:49:32 68° 349° (N) 16:52:51 145.825
NOAA 15 11 Dec 16:46:46 16:51:34 38° 64° (ENE) 16:56:24 137.62
DOVE 4 11 Dec 16:54:01 16:58:27 31° 63° (ENE) 17:03:01 437.250
HO-68 11 Dec 16:55:21 17:00:01 19° 45° (NE) 17:04:42 435.675
LilacSat-2 11 Dec 16:55:45 16:59:10 31° 68° (ENE) 17:02:35 437.200
YUBILEINY 11 Dec 17:03:30 17:09:16 20° 74° (ENE) 17:15:02 435.215
Cubesat XI-IV 11 Dec 17:12:10 17:17:24 54° 68° (ENE) 17:22:38 437.490
GOMX 1 11 Dec 17:15:05 17:19:56 89° 74° (ENE) 17:25:11 467.674
STARS 11 Dec 17:19:31 17:23:59 77° 105° (ESE) 17:28:22 437.465
AO-7 11 Dec 17:19:44 17:23:43 14° 277° (W) 17:27:45 29.400- 29.500
CINEMA 3 11 Dec 17:27:27 17:31:02 20° 59° (ENE) 17:34:37 145.822/145.860
KKS-1 11 Dec 17:31:28 17:35:44 43° 292° (WNW) 17:39:57 437.445
PCSat 11 Dec 17:34:04 17:38:41 27° 35° (NE) 17:43:17 145.827
CANX-2 11 Dec 17:42:52 17:45:22 16° 60° (ENE) 17:47:54 2200.000
NOAA 18 11 Dec 17:46:30 17:52:01 71° 70° (ENE) 17:57:35 137.9125
AUBIESAT-1 11 Dec 17:47:28 17:48:31 11° 315° (NW) 17:49:33 437.475
HORYU 2 11 Dec 17:48:18 17:51:59 25° 266° (W) 17:55:40 437.375
MOZHAYETS 4 11 Dec 17:48:31 17:51:19 16° 302° (WNW) 17:54:08
O/OREOS (USA 219) 11 Dec 17:48:52 17:50:11 11° 324° (NW) 17:51:31 437.305
SEEDS 11 Dec 17:55:34 17:57:28 13° 57° (ENE) 17:59:22 437.485
Cosmos 2504 11 Dec 18:01:34 18:07:55 24° 76° (ENE) 18:14:25 435.465 / 435.565
CUBESAT XI-V 11 Dec 18:07:00 18:11:31 50° 290° (WNW) 18:16:03 437.345
BRITE-PL 11 Dec 18:15:24 18:17:41 13° 276° (W) 18:20:02 437.365/2234.400
SO-50 11 Dec 18:18:37 18:22:21 23° 115° (ESE) 18:26:02 436.795
ISS 11 Dec 18:22:57 18:26:15 65° 9° (N) 18:29:32 145.825
CUTE-I 11 Dec 18:24:22 18:29:26 42° 262° (W) 18:34:32 437.470
NOAA 15 11 Dec 18:26:34 18:31:22 36° 263° (W) 18:36:13 137.62
AIST 1 11 Dec 18:26:39 18:29:52 21° 86° (E) 18:33:07
Cosmos 2491 11 Dec 18:26:57 18:35:27 60° 269° (W) 18:43:56 435.465 / 435.565
LilacSat-2 11 Dec 18:30:19 18:33:31 25° 266° (W) 18:36:42 437.200
DOVE 4 11 Dec 18:31:10 18:35:57 44° 264° (W) 18:40:59 437.250
RS-15 11 Dec 18:34:27 18:40:46 16° 268° (W) 18:47:01 29.354- 29.394
CUBEBUG 2 11 Dec 18:38:51 18:42:35 24° 63° (ENE) 18:46:15 437.445
HO-68 11 Dec 18:39:27 18:46:32 68° 67° (ENE) 18:53:41 435.675
AAUSAT CUBESAT 2 11 Dec 18:50:36 18:53:50 23° 64° (ENE) 18:57:05 437.432
Cubesat XI-IV 11 Dec 18:53:22 18:57:47 26° 267° (W) 19:02:15 437.490
YUBILEINY 11 Dec 18:55:56 19:04:39 81° 96° (E) 19:13:27 435.215
GOMX 1 11 Dec 18:56:20 18:58:52 14° 276° (W) 19:01:28 467.674
STARS 11 Dec 18:57:07 18:59:46 16° 303° (WNW) 19:02:24 437.465
CUTE 1.7 + AOD 2 11 Dec 18:57:09 19:01:19 66° 73° (ENE) 19:05:30 437.475
CINEMA 3 11 Dec 19:02:38 19:07:38 72° 257° (WSW) 19:12:41 145.822/145.860
UWE-3 11 Dec 19:07:27 19:11:22 28° 65° (ENE) 19:15:12 435.000/436.395/437.385
CUSAT 1 11 Dec 19:13:00 19:16:48 47° 75° (ENE) 19:21:45 437.405
CANX-2 11 Dec 19:16:34 19:20:45 70° 258° (WSW) 19:24:58 2200.000
PCSat 11 Dec 19:17:13 19:22:40 79° 238° (WSW) 19:28:05 145.827
DANDE 11 Dec 19:22:23 19:23:31 11° 68° (ENE) 19:24:42 436.750
STRAND 1 11 Dec 19:26:05 19:30:59 44° 99° (E) 19:35:50 437.568
COMPASS 1 11 Dec 19:26:27 19:30:31 63° 74° (ENE) 19:34:38 437.405
SEEDS 11 Dec 19:28:23 19:32:33 86° 257° (WSW) 19:36:45 437.485
NOAA 18 11 Dec 19:29:08 19:33:14 21° 270° (W) 19:37:21 137.9125
ZACube-1 11 Dec 19:33:48 19:37:45 31° 66° (ENE) 19:41:39 437.345
FUNcube-1 11 Dec 19:37:42 19:41:39 31° 66° (ENE) 19:45:31 145.935
Cosmos 2504 11 Dec 19:51:28 20:00:06 88° 97° (E) 20:09:05 435.465 / 435.565
SO-50 11 Dec 19:57:45 20:02:28 64° 314° (NW) 20:07:08 436.795
ISS 11 Dec 19:59:31 20:02:43 45° 209° (SSW) 20:05:54 145.825
Oscar 11 11 Dec 19:59:39 20:03:46 47° 70° (ENE) 20:07:55 145.826/435.025
AIST 1 11 Dec 20:02:58 20:07:09 45° 285° (WNW) 20:11:24
HUMSAT D 11 Dec 20:06:32 20:08:39 14° 58° (ENE) 20:10:45 437.325/437.525
CUBEBUG 2 11 Dec 20:14:19 20:18:55 51° 261° (W) 20:23:27 437.445
AAUSAT CUBESAT 2 11 Dec 20:25:13 20:29:06 41° 262° (W) 20:33:01 437.432
Cosmos 2491 11 Dec 20:26:39 20:30:19 13° 292° (WNW) 20:33:59 435.465 / 435.565
DELFI C3 11 Dec 20:27:09 20:30:41 33° 68° (ENE) 20:34:14 145.870
HO-68 11 Dec 20:28:44 20:34:49 29° 267° (W) 20:40:57 435.675
CUTE 1.7 + AOD 2 11 Dec 20:35:15 20:37:36 15° 271° (W) 20:39:58 437.475
UWE-3 11 Dec 20:43:21 20:47:41 40° 263° (W) 20:51:58 435.000/436.395/437.385
CINEMA 3 11 Dec 20:44:21 20:45:38 11° 277° (W) 20:46:55 145.822/145.860
YUBILEINY 11 Dec 20:55:14 21:02:32 29° 301° (WNW) 21:09:55 435.215
CUSAT 1 11 Dec 20:55:31 20:58:36 20° 266° (W) 21:02:18 437.405
PCSat 11 Dec 21:02:27 21:05:12 14° 257° (WSW) 21:07:56 145.827
DANDE 11 Dec 21:03:21 21:06:15 42° 261° (W) 21:09:51 436.750
COMPASS 1 11 Dec 21:04:10 21:06:30 15° 271° (W) 21:08:52 437.405
STRAND 1 11 Dec 21:05:35 21:10:01 31° 298° (WNW) 21:14:26 437.568
ZACube-1 11 Dec 21:09:54 21:13:59 34° 264° (W) 21:18:02 437.345
FUNcube-1 11 Dec 21:13:47 21:17:51 33° 264° (W) 21:21:51 145.935
PRISM 11 Dec 21:16:29 21:20:25 39° 98° (E) 21:24:20 437.425
ESTCUBE 1 11 Dec 21:28:42 21:31:37 17° 58° (ENE) 21:34:32 437.505/2401.250
Oscar 11 11 Dec 21:36:53 21:40:09 21° 268° (W) 21:43:26 145.826/435.025
HUMSAT D 11 Dec 21:39:32 21:43:43 79° 257° (WSW) 21:47:52 437.325/437.525
SO-50 11 Dec 21:40:23 21:43:48 19° 336° (NNW) 21:47:11 436.795
VELOX 1 11 Dec 21:45:25 21:47:01 12° 54° (NE) 21:48:38 145.980
Cosmos 2504 11 Dec 21:47:39 21:54:46 27° 302° (WNW) 22:02:04 435.465 / 435.565
DELFI C3 11 Dec 22:02:16 22:05:33 25° 266° (W) 22:08:51 145.870
UNISAT 6 11 Dec 22:12:40 22:16:47 38° 97° (E) 22:20:47 437.425
Cosmos 2499 11 Dec 22:34:49 22:40:48 21° 74° (ENE) 22:46:49 435.465 / 435.565
50 SAT 11 Dec 22:39:37 22:42:22 22° 65° (ENE) 22:45:09 437.505
TIGRISAT 11 Dec 22:40:26 22:44:48 68° 102° (ESE) 22:49:03 435.000
AISAT 11 Dec 22:42:16 22:46:20 36° 66° (ENE) 22:50:27 437.250
ANTELSAT 11 Dec 22:43:39 22:48:03 77° 102° (ESE) 22:52:20 437.575/2403.000
CUBEBUG 1 11 Dec 22:50:22 22:54:40 57° 71° (ENE) 22:59:01 437.445
PRISM 11 Dec 22:52:07 22:55:33 25° 297° (WNW) 22:58:57 437.425
O/OREOS (USA 219) 11 Dec 22:53:04 22:55:59 17° 43° (NE) 22:58:52 437.305
NANOSAT C BR1 11 Dec 23:01:34 23:03:58 15° 89° (E) 23:06:21 145.865
SPROUT 11 Dec 23:02:32 23:06:29 36° 67° (ENE) 23:10:27 437.525
ESTCUBE 1 11 Dec 23:03:28 23:07:55 70° 257° (WSW) 23:12:26 437.505/2401.250
UKube-1 11 Dec 23:04:22 23:07:55 26° 63° (ENE) 23:11:30 .
JAS-2 11 Dec 23:06:23 23:11:00 30° 95° (E) 23:15:51 435.910
DX 1 11 Dec 23:09:54 23:13:53 36° 66° (ENE) 23:17:55 434.975-435.025
QB50P2 11 Dec 23:13:19 23:16:38 22° 92° (E) 23:19:54 145.880/145.840
POLYITAN 1 11 Dec 23:13:43 23:16:56 21° 92° (E) 23:20:07 437.675
VELOX 1 11 Dec 23:18:17 23:22:42 75° 73° (ENE) 23:27:10 145.980
DUCHIFAT 1 11 Dec 23:19:41 23:22:51 20° 92° (E) 23:26:00 145.980
SO-50 11 Dec 23:23:59 23:26:03 13° 0° (N) 23:28:04 436.795
QB50P1 11 Dec 23:24:18 23:27:52 26° 94° (E) 23:31:25 145.935-145.965
GONETS M04 11 Dec 23:35:34 23:43:27 41° 85° (E) 23:51:21
PHONESAT 2.4 11 Dec 23:39:14 23:40:21 12° 176° (S) 23:41:27 2401.200-2431.200
POPSAT HIP 1 11 Dec 23:46:13 23:50:16 41° 98° (E) 23:54:15 437.405
UNISAT 6 11 Dec 23:49:41 23:53:21 26° 296° (WNW) 23:56:57 437.425
BUGSAT 1 11 Dec 23:49:44 23:52:28 17° 90° (E) 23:55:10 437.445
TISAT 1 12 Dec 00:01:01 00:04:38 28° 65° (ENE) 00:08:16 437.305
AO-85 12 Dec 00:02:16 00:05:44 20° 115° (ESE) 00:09:02 145.980
M-CUBED/EXP-1 PRIME 12 Dec 00:11:22 00:14:01 16° 49° (NE) 00:16:44 437.505
50 SAT 12 Dec 00:12:23 00:15:31 31° 263° (W) 00:18:42 437.505
TIGRISAT 12 Dec 00:18:12 00:21:00 17° 301° (WNW) 00:23:44 435.000
AISAT 12 Dec 00:19:01 00:22:52 29° 265° (W) 00:26:46 437.250
ANTELSAT 12 Dec 00:21:41 00:24:11 15° 303° (WNW) 00:26:40 437.575/2403.000
Cosmos 2499 12 Dec 00:23:47 00:32:33 80° 96° (E) 00:41:28 435.465 / 435.565
CUBEBUG 1 12 Dec 00:28:17 00:31:19 18° 270° (W) 00:34:23 437.445
ITUPSAT 1 12 Dec 00:29:30 00:32:19 16° 55° (NE) 00:35:07 437.325
O/OREOS (USA 219) 12 Dec 00:31:32 00:36:04 89° 244° (WSW) 00:40:32 437.305
NANOSAT C BR1 12 Dec 00:35:57 00:40:09 66° 288° (WNW) 00:44:19 145.865
SPROUT 12 Dec 00:38:47 00:42:29 27° 266° (W) 00:46:11 437.525
UKube-1 12 Dec 00:39:43 00:43:47 40° 261° (W) 00:47:54 .
DX 1 12 Dec 00:46:23 00:50:09 28° 265° (W) 00:53:56 434.975-435.025
QB50P2 12 Dec 00:48:35 00:52:37 43° 291° (WNW) 00:56:38 145.880/145.840
POLYITAN 1 12 Dec 00:48:54 00:52:58 46° 290° (WNW) 00:56:59 437.675
JAS-2 12 Dec 00:51:24 00:56:18 43° 294° (WNW) 01:01:27 435.910
DUCHIFAT 1 12 Dec 00:54:44 00:58:47 46° 290° (WNW) 01:02:47 145.980
VELOX 1 12 Dec 00:57:20 00:59:43 14° 272° (W) 01:02:05 145.980
QB50P1 12 Dec 00:59:50 01:03:44 36° 293° (WNW) 01:07:36 145.935-145.965
Gurwin Techsat 1B 12 Dec 01:02:08 01:04:58 14° 86° (E) 01:07:48 435.225
SO-50 12 Dec 01:04:50 01:08:15 20° 25° (NNE) 01:11:36 436.795
POPSAT HIP 1 12 Dec 01:22:25 01:25:50 24° 297° (WNW) 01:29:14 437.405
BUGSAT 1 12 Dec 01:24:06 01:28:13 55° 289° (WNW) 01:32:14 437.445
AUBIESAT-1 12 Dec 01:25:27 01:29:42 50° 63° (ENE) 01:34:09 437.475
SWISSCUBE 12 Dec 01:29:21 01:33:57 52° 69° (ENE) 01:38:35 437.505
GONETS M04 12 Dec 01:31:34 01:40:02 55° 288° (WNW) 01:48:35
BEESAT 12 Dec 01:32:40 01:37:16 50° 69° (ENE) 01:41:53 436.000
TISAT 1 12 Dec 01:36:15 01:40:10 35° 263° (W) 01:44:07 437.305
MOZHAYETS 4 12 Dec 01:40:50 01:43:53 18° 59° (ENE) 01:46:57
AO-85 12 Dec 01:41:01 01:45:48 71° 312° (NW) 01:50:14 145.980
M-CUBED/EXP-1 PRIME 12 Dec 01:43:22 01:47:46 85° 69° (ENE) 01:52:26 437.505
Oscar 19 12 Dec 01:50:13 01:55:25 63° 102° (ESE) 02:00:34 437.125/150
ITUPSAT 1 12 Dec 02:04:43 02:09:30 88° 257° (WSW) 02:14:19 437.325
O/OREOS (USA 219) 12 Dec 02:13:09 02:14:43 12° 263° (W) 02:16:17 437.305
Cosmos 2499 12 Dec 02:19:09 02:26:41 30° 300° (WNW) 02:34:18 435.465 / 435.565
ITAMSAT 1 12 Dec 02:34:06 02:38:02 21° 91° (E) 02:41:56 435.822/435.867
Gurwin Techsat 1B 12 Dec 02:40:20 02:45:42 88° 103° (ESE) 02:51:02 435.225
SO-50 12 Dec 02:44:56 02:49:31 70° 48° (NE) 02:53:59 436.795
STARS 12 Dec 02:45:41 02:48:34 17° 58° (ENE) 02:51:27 437.465
KKS-1 12 Dec 02:57:08 03:01:17 39° 67° (ENE) 03:05:28 437.445
AUBIESAT-1 12 Dec 03:00:50 03:04:21 23° 263° (W) 03:08:00 437.475
YUBILEINY 12 Dec 03:05:23 03:09:49 14° 44° (NE) 03:14:15 435.215
SWISSCUBE 12 Dec 03:08:18 03:12:03 23° 268° (W) 03:15:48 437.505
BEESAT 12 Dec 03:11:31 03:15:19 23° 267° (W) 03:19:08 436.000
MOZHAYETS 4 12 Dec 03:16:01 03:20:34 69° 257° (WSW) 03:25:09
AO-7 12 Dec 03:17:35 03:25:09 36° 96° (E) 03:32:39 29.400- 29.500
M-CUBED/EXP-1 PRIME 12 Dec 03:20:41 03:22:53 13° 268° (W) 03:25:08 437.505
AO-85 12 Dec 03:23:39 03:26:55 19° 332° (NNW) 03:30:03 145.980
Oscar 19 12 Dec 03:30:17 03:34:20 23° 301° (WNW) 03:38:22 437.125/150
GONETS M04 12 Dec 03:34:43 03:39:20 15° 314° (NW) 03:44:00
CUBESAT XI-V 12 Dec 03:37:27 03:41:36 35° 67° (ENE) 03:45:49 437.345
BEESAT 3 12 Dec 03:41:21 03:45:01 40° 122° (ESE) 03:48:44 437.485
ITUPSAT 1 12 Dec 03:46:03 03:48:03 12° 273° (W) 03:50:04 437.325
Cosmos 2504 12 Dec 03:47:41 03:51:31 13° 42° (NE) 03:55:16 435.465 / 435.565
